Regional Weather Roundup
Issued by NWS

Home | Current Version | Previous Version | Text Only | Print | Product List | Glossary On
Versions: 1 2 3 4 5 6 7 8 9 10 11 12 13 14 15 16 17 18 19 20 21 22 23 24 25 26 27 28 29 30 31 32 33 34 35 36 37 38 39 40 41 42 43 44 45 46 47 48 49 50
000
ASUS46 KSEW 022210
RWRWA

WASHINGTON REGIONAL WEATHER ROUNDUP
NATIONAL WEATHER SERVICE SEATTLE WA
300 PM PDT THU JUL 02 2015

NOTE:"FAIR" INDICATES FEW OR NO CLOUDS BELOW 12,000 FEET WITH NO
SIGNIFICANT WEATHER AND/OR OBSTRUCTIONS TO VISIBILITY.

WAZ505-507>509-022300-
SEATTLE, TACOMA, EVERETT, AND VICINITY

CITY           SKY/WX    TMP DP  RH WIND       PRES   REMARKS
EVERETT        SUNNY     84  55  36 N8        30.01F
BOEING FIELD   SUNNY     90  53  28 NW8       29.97F
RENTON         SUNNY     89  55  31 NW10      29.97F
SEATAC AIRPORT MOSUNNY   90  53  28 N12G21    30.00F
JBLM-MCCHORD   SUNNY     91  55  29 NE10      29.98F
PUYALLUP       FAIR      91  52  25 VRB7      30.00F
BREMERTON      SUNNY     91  57  31 N9        30.01F HX  90
JBLM-FT LEWIS  SUNNY     91  55  29 NE5       29.98F
TACOMA NARROWS SUNNY     86  55  34 VRB5      29.99F
$$

WAZ001-503-506-510-514-515-022300-
NORTH INTERIOR

CITY           SKY/WX    TMP DP  RH WIND       PRES   REMARKS
BELLINGHAM     SUNNY     80  59  48 VRB6      29.99F
FRIDAY HARBOR  SUNNY     86  52  30 N10       30.00F
EASTSOUND      SUNNY     72  55  56 N5        29.99F
PORT ANGELES   SUNNY     83  53  35 NE6       30.01F
PORT TOWNSEND  FAIR      84  54  34 NW8       29.99F
NAS WHIDBEY    MOSUNNY   75  56  51 W6        30.03F
ARLINGTON      SUNNY     88  61  40 NW10      29.98F
BURLINGTON     SUNNY     82  54  36 NW12G17   29.99F
$$

WAZ020-022-039-040-504-511-512-022300-
SOUTHWEST INTERIOR

CITY           SKY/WX    TMP DP  RH WIND       PRES   REMARKS
SHELTON        SUNNY     94  55  26 SE8       29.94F HX  92
OLYMPIA        SUNNY     93  53  25 N6        29.97F HX  90
CHEHALIS       FAIR      95  59  30 VRB6G13   29.97F HX  94
KELSO          SUNNY     93  61  33 W8G18     29.97F HX  93
VANCOUVER      SUNNY     96  55  25 NW14G21   29.91F HX  94
SCAPPOOSE, OR  SUNNY     96  54  24 N12G20    29.91F HX  94
PORTLAND, OR   MOSUNNY   95  57  27 NW9       29.92F HX  94
$$

WAZ021-516-517-022300-
WASHINGTON COAST

CITY           SKY/WX    TMP DP  RH WIND       PRES   REMARKS
FORKS          SUNNY     76  58  53 SW8       30.02S
HOQUIAM        SUNNY     71  59  65 SW16      30.02F HAZE
ASTORIA, OR    SUNNY     72  59  63 W9        30.02S
$$

WAZ019-023-024-040-518-519-022300-
CASCADE MOUNTAINS AND COLUMBIA GORGE

CITY           SKY/WX    TMP DP  RH WIND       PRES   REMARKS
TROUTDALE, OR  SUNNY     94  57  28 SW8       29.90F HX  92
THE DALLES, OR SUNNY    104  45  13 NW14      29.83F HX 100
$$

WAZ026-027-041>044-520-521-022300-
EAST SLOPES

CITY           SKY/WX    TMP DP  RH WIND       PRES   REMARKS
OMAK           SUNNY    100  45  15 VRB6      29.92F HX  96
WENATCHEE      SUNNY    100  41  13 E6        29.90F HX  95
ELLENSBURG     SUNNY    104  42  12 VRB3      29.94F HX  99
YAKIMA         SUNNY    102  47  15 VRB7      29.89F HX  98
$$

WAZ028-034-035-022300-
COLUMBIA BASIN

CITY           SKY/WX    TMP DP  RH WIND       PRES   REMARKS
EPHRATA        SUNNY    103  44  13 W14G23    29.90F HX  98
MOSES LAKE     SUNNY    102  44  14 SW9       29.91F HX  98
PASCO          SUNNY    102  50  17 SW8       29.86F HX  99
HERMISTON, OR  SUNNY    104  46  14 N8        29.86F HX 100
$$

WAZ036>038-022300-
NORTHEAST WASHINGTON

CITY           SKY/WX    TMP DP  RH WIND       PRES   REMARKS
SPOKANE GEIGER MOSUNNY   95  42  16 NW9       29.99F HX  91
SPOKANE FELTS  SUNNY     97  44  16 SW7       29.96F HX  93
FAIRCHILD AFB  SUNNY     95  41  15 VRB6      29.99F HX  90
COEURDALENE,ID SUNNY     93  46  20 CALM      29.96F
DEER PARK      MOSUNNY   95  46  18 SE7       29.98F HX  91
$$

WAZ029>033-022300-
SOUTHEAST WASHINGTON

CITY           SKY/WX    TMP DP  RH WIND       PRES   REMARKS
PULLMAN        SUNNY     93  41  16 VRB6      30.01F
LEWISTON, ID   SUNNY    101  37  11 E7        29.90F HX  95
WALLA WALLA    SUNNY    103  38  10 NW9       29.89F HX  97
PENDLETON, OR  SUNNY    102  39  11 W8        29.91F HX  97
$$



USA.gov is the U.S. government's official web portal to all federal, state and local government web resources and services.